TimeCST,TemperatureF,Dew PointF,Humidity,Sea Level PressureIn,VisibilityMPH,Wind Direction,Wind SpeedMPH,Gust SpeedMPH,PrecipitationIn,Events,Conditions,WindDirDegrees,DateUTC
12:53 AM,66.9,54.0,63,29.70,10.0,SSW,19.6,26.5,N/A,,Overcast,200,2012-11-11 06:53:00
1:53 AM,66.9,54.0,63,29.68,10.0,South,16.1,29.9,N/A,,Mostly Cloudy,180,2012-11-11 07:53:00
2:53 AM,66.9,55.0,66,29.64,10.0,South,25.3,34.5,N/A,,Overcast,170,2012-11-11 08:53:00
3:53 AM,64.9,57.0,75,29.65,9.0,SSW,15.0,27.6,0.04,Rain,Light Rain,210,2012-11-11 09:53:00
4:01 AM,62.6,57.2,82,29.68,2.5,SW,11.5,23.0,0.08,Rain,Rain,220,2012-11-11 10:01:00
4:11 AM,60.8,57.2,88,29.68,9.0,SSW,15.0,23.0,0.08,Rain,Light Rain,210,2012-11-11 10:11:00
4:53 AM,59.0,57.0,93,29.66,4.0,SSW,8.1,-,0.14,Rain,Rain,210,2012-11-11 10:53:00
5:18 AM,57.2,57.2,100,29.68,2.0,SW,6.9,-,0.09,Rain,Rain,230,2012-11-11 11:18:00
5:38 AM,57.2,55.4,94,29.69,2.5,WSW,9.2,-,0.23,Rain,Light Rain,240,2012-11-11 11:38:00
5:42 AM,57.2,55.4,94,29.68,1.8,West,8.1,-,0.26,Rain-Thunderstorm,Heavy Rain,260,2012-11-11 11:42:00
5:50 AM,55.4,51.8,88,29.70,2.0,WNW,17.3,31.1,0.31,Rain-Thunderstorm,Heavy Rain,290,2012-11-11 11:50:00
5:53 AM,54.0,52.0,93,29.69,2.5,WNW,17.3,31.1,0.32,Rain-Thunderstorm,Heavy Rain,300,2012-11-11 11:53:00
6:03 AM,53.6,51.8,94,29.72,2.0,WNW,13.8,26.5,0.09,Rain,Heavy Rain,300,2012-11-11 12:03:00
6:09 AM,53.6,51.8,94,29.72,3.0,WNW,13.8,23.0,0.11,Rain,Rain,300,2012-11-11 12:09:00
6:16 AM,51.8,51.8,100,29.70,4.0,NW,17.3,23.0,0.13,Rain-Thunderstorm,Thunderstorms and Rain,320,2012-11-11 12:16:00
6:31 AM,50.0,48.2,94,29.72,6.0,NNW,11.5,21.9,0.15,Rain,Light Rain,330,2012-11-11 12:31:00
6:44 AM,48.2,46.4,93,29.72,6.0,NW,13.8,-,0.19,Rain,Rain,320,2012-11-11 12:44:00
6:53 AM,46.9,46.0,97,29.74,5.0,WNW,12.7,19.6,0.22,Rain,Rain,300,2012-11-11 12:53:00
7:22 AM,44.6,42.8,93,29.77,8.0,NW,16.1,23.0,0.07,Rain,Light Rain,320,2012-11-11 13:22:00
7:53 AM,42.1,39.9,92,29.78,7.0,NW,15.0,20.7,0.11,Rain,Light Rain,310,2012-11-11 13:53:00
8:03 AM,41.0,39.2,93,29.80,6.0,NW,15.0,21.9,0.01,Rain,Light Rain,320,2012-11-11 14:03:00
8:53 AM,39.9,37.9,93,29.80,7.0,NNW,16.1,21.9,0.19,Rain,Light Rain,330,2012-11-11 14:53:00
10:31 AM,35.6,35.6,100,29.89,2.0,NW,11.5,-,0.14,Rain,Rain,320,2012-11-11 16:31:00
10:41 AM,35.6,33.8,93,29.91,4.0,NW,16.1,21.9,0.17,Rain,Rain,310,2012-11-11 16:41:00
10:53 AM,34.0,33.1,96,29.88,2.0,NNW,10.4,21.9,0.24,Rain,Heavy Rain,340,2012-11-11 16:53:00
10:55 AM,33.8,33.8,100,29.88,1.8,NNW,9.2,21.9,0.01,Rain,Heavy Rain,340,2012-11-11 16:55:00
11:33 AM,33.8,32.0,93,29.89,5.0,NNW,12.7,21.9,0.10,Rain,Light Rain,330,2012-11-11 17:33:00
11:53 AM,32.0,30.0,92,29.92,10.0,NW,19.6,25.3,0.10,,Overcast,320,2012-11-11 17:53:00
12:53 PM,30.9,28.9,92,29.91,10.0,NNW,19.6,25.3,0.00,,Overcast,330,2012-11-11 18:53:00
1:53 PM,32.0,28.0,85,29.95,10.0,NNW,15.0,-,N/A,,Overcast,330,2012-11-11 19:53:00
2:35 PM,32.0,28.4,87,29.96,10.0,NNW,12.7,18.4,N/A,,Overcast,330,2012-11-11 20:35:00
2:53 PM,32.0,28.0,85,29.98,10.0,NW,12.7,-,N/A,,Overcast,310,2012-11-11 20:53:00
3:48 PM,32.0,26.6,80,30.00,10.0,NNW,11.5,20.7,N/A,,Overcast,330,2012-11-11 21:48:00
3:53 PM,32.0,26.1,79,29.99,10.0,NNW,15.0,21.9,N/A,,Overcast,330,2012-11-11 21:53:00
4:53 PM,32.0,26.1,79,30.03,10.0,NW,12.7,20.7,N/A,,Overcast,320,2012-11-11 22:53:00
5:41 PM,32.0,24.8,75,30.06,10.0,NW,8.1,-,N/A,,Scattered Clouds,320,2012-11-11 23:41:00
5:53 PM,32.0,25.0,75,30.09,10.0,NW,8.1,-,N/A,,Scattered Clouds,320,2012-11-11 23:53:00
6:53 PM,30.9,25.0,79,30.12,10.0,NW,6.9,-,N/A,,Clear,310,2012-11-12 00:53:00
7:53 PM,30.9,23.0,72,30.15,10.0,NW,8.1,-,N/A,,Clear,310,2012-11-12 01:53:00
8:53 PM,30.0,19.9,66,30.19,10.0,NW,9.2,-,N/A,,Clear,320,2012-11-12 02:53:00
9:53 PM,28.9,19.0,67,30.22,10.0,NW,10.4,-,N/A,,Clear,320,2012-11-12 03:53:00
10:53 PM,28.0,18.0,66,30.24,10.0,NW,9.2,-,N/A,,Clear,310,2012-11-12 04:53:00
11:53 PM,27.0,17.1,66,30.25,10.0,WNW,5.8,-,N/A,,Clear,300,2012-11-12 05:53:00